WZZ201 EGGW-LRBV

Flight info

Callsign WZZ201
Flight time N/A
Altitude 37000
Route MATCH Q295 BRAIN M197 REDFA DCT TACHA DCT TIVUN DCT ESAMA DCT OSBIT DCT BOREP DCT ENITA DCT IPDUL DCT PEPIK DCT UVERA DCT BUDOP DCT NERDI DCT ZULOC DCT LEBAT
Aircraft A21N/M-SDE2E3FGHIRWXY/LB1

Departure

Time 2026-04-29 17:23
Airport London Luton Airport (EGGW)

Arrival

Time N/A
Airport Brașov-Ghimbav International Airport (LRBV)
Time Latitude Longitude Altitude Speed Heading
2026-04-29 17:03 51.88083 -0.37358 511 ft 0 kts 341°
2026-04-29 17:15 51.88081 -0.37357 511 ft 4 kts 341°
2026-04-29 17:15 51.88049 -0.37341 511 ft 5 kts 344°
2026-04-29 17:16 51.88028 -0.37335 511 ft 2 kts
2026-04-29 17:16 51.88018 -0.37342 511 ft 2 kts 52°
2026-04-29 17:16 51.88012 -0.37357 511 ft 2 kts 68°
2026-04-29 17:16 51.88009 -0.37373 511 ft 1 kts 71°
2026-04-29 17:17 51.88008 -0.37373 511 ft 0 kts 71°
2026-04-29 17:17 51.88009 -0.37372 511 ft 3 kts 71°
2026-04-29 17:18 51.88033 -0.37256 511 ft 12 kts 78°
2026-04-29 17:18 51.88023 -0.37140 511 ft 10 kts 149°
2026-04-29 17:18 51.87950 -0.37096 512 ft 22 kts 162°
2026-04-29 17:18 51.87750 -0.36987 521 ft 30 kts 160°
2026-04-29 17:19 51.87627 -0.36969 527 ft 12 kts 251°
2026-04-29 17:19 51.87602 -0.37135 525 ft 22 kts 254°
2026-04-29 17:19 51.87569 -0.37419 526 ft 24 kts 244°
2026-04-29 17:19 51.87490 -0.37619 526 ft 20 kts 255°
2026-04-29 17:20 51.87453 -0.37838 526 ft 23 kts 255°
2026-04-29 17:20 51.87389 -0.38053 526 ft 18 kts 217°
2026-04-29 17:20 51.87369 -0.38073 526 ft 0 kts 200°
2026-04-29 17:21 51.87277 -0.38125 526 ft 19 kts 189°
2026-04-29 17:21 51.87231 -0.38247 525 ft 14 kts 275°
2026-04-29 17:22 51.87213 -0.38344 523 ft 10 kts 178°
2026-04-29 17:22 51.87203 -0.38262 524 ft 8 kts 62°
2026-04-29 17:22 51.87263 -0.38036 527 ft 47 kts 70°
2026-04-29 17:22 51.87408 -0.37174 524 ft 113 kts 74°
2026-04-29 17:23 51.87631 -0.35704 702 ft 152 kts 74°
2026-04-29 17:23 51.87942 -0.33983 1280 ft 161 kts 72°
2026-04-29 17:23 51.88255 -0.32323 2259 ft 147 kts 75°
2026-04-29 17:23 51.88550 -0.30637 2728 ft 168 kts 76°
2026-04-29 17:24 51.88884 -0.28665 3042 ft 195 kts 76°
2026-04-29 17:24 51.89258 -0.26448 3426 ft 217 kts 78°
2026-04-29 17:24 51.89506 -0.23982 4073 ft 226 kts 88°
2026-04-29 17:24 51.89486 -0.21408 4891 ft 231 kts 94°
2026-04-29 17:25 51.89371 -0.18786 5705 ft 236 kts 96°
2026-04-29 17:25 51.89187 -0.16133 6545 ft 239 kts 98°
2026-04-29 17:25 51.88954 -0.13437 7307 ft 245 kts 99°
2026-04-29 17:25 51.88688 -0.10679 8072 ft 250 kts 99°
2026-04-29 17:26 51.88407 -0.07874 8904 ft 254 kts 100°
2026-04-29 17:26 51.88121 -0.05034 9699 ft 260 kts 99°
2026-04-29 17:26 51.87831 -0.02124 10443 ft 266 kts 100°
2026-04-29 17:26 51.87526 0.00945 10811 ft 287 kts 100°
2026-04-29 17:27 51.87203 0.04211 11094 ft 308 kts 100°
2026-04-29 17:27 51.86853 0.07770 11260 ft 333 kts 100°
2026-04-29 17:27 51.86474 0.11628 11283 ft 361 kts 100°
2026-04-29 17:27 51.86073 0.15718 11281 ft 369 kts 100°
2026-04-29 17:28 51.85678 0.19769 11296 ft 360 kts 100°
2026-04-29 17:28 51.85288 0.23748 11292 ft 358 kts 100°
2026-04-29 17:28 51.84896 0.27723 11293 ft 358 kts 100°
2026-04-29 17:28 51.84500 0.31707 11292 ft 358 kts 100°
2026-04-29 17:29 51.84105 0.35670 11294 ft 357 kts 100°
2026-04-29 17:29 51.83707 0.39629 11293 ft 358 kts 100°
2026-04-29 17:29 51.83307 0.43605 11291 ft 358 kts 100°
2026-04-29 17:29 51.83041 0.46232 11286 ft 357 kts 100°
2026-04-29 17:30 51.82504 0.51530 11285 ft 356 kts 100°
2026-04-29 17:30 51.82101 0.55486 11289 ft 356 kts 100°
2026-04-29 17:30 51.81699 0.59429 11288 ft 356 kts 100°
2026-04-29 17:30 51.81308 0.63323 11288 ft 355 kts 98°
2026-04-29 17:31 51.81317 0.67331 11379 ft 363 kts 85°
2026-04-29 17:31 51.81755 0.71362 12006 ft 364 kts 79°
2026-04-29 17:31 51.82381 0.75347 12701 ft 367 kts 77°
2026-04-29 17:31 51.83078 0.79337 13296 ft 371 kts 76°
2026-04-29 17:32 51.83818 0.83347 13903 ft 373 kts 75°
2026-04-29 17:32 51.84595 0.87370 14213 ft 377 kts 75°
2026-04-29 17:32 51.85380 0.91421 14275 ft 378 kts 75°
2026-04-29 17:32 51.86156 0.95484 14278 ft 378 kts 75°
2026-04-29 17:33 51.86918 0.99555 14285 ft 378 kts 75°
2026-04-29 17:33 51.87664 1.03613 14285 ft 375 kts 76°
2026-04-29 17:33 51.88391 1.07614 14288 ft 375 kts 75°
2026-04-29 17:33 51.89124 1.11675 14585 ft 377 kts 75°
2026-04-29 17:34 51.89859 1.15771 15093 ft 380 kts 75°
2026-04-29 17:34 51.90596 1.19886 15601 ft 381 kts 75°
2026-04-29 17:34 51.91334 1.24011 16111 ft 383 kts 75°
2026-04-29 17:34 51.92078 1.28177 16525 ft 387 kts 75°
2026-04-29 17:35 51.93094 1.33769 17192 ft 389 kts 71°
2026-04-29 17:35 51.95407 1.40084 17879 ft 397 kts 52°
2026-04-29 17:35 51.97205 1.43512 18293 ft 402 kts 51°
2026-04-29 17:36 51.99038 1.46949 18706 ft 403 kts 51°
2026-04-29 17:36 52.00879 1.50389 19096 ft 406 kts 51°
2026-04-29 17:36 52.02737 1.53864 19474 ft 408 kts 51°
2026-04-29 17:36 52.04613 1.57348 19826 ft 411 kts 51°
2026-04-29 17:37 52.06507 1.60861 20155 ft 415 kts 51°
2026-04-29 17:37 52.08417 1.64392 20546 ft 418 kts 51°
2026-04-29 17:37 52.10257 1.68063 20889 ft 418 kts 60°
2026-04-29 17:37 52.11443 1.72265 21236 ft 416 kts 75°
2026-04-29 17:38 52.12084 1.76862 21577 ft 417 kts 81°
2026-04-29 17:38 52.12600 1.81516 22002 ft 418 kts 81°
2026-04-29 17:38 52.13101 1.86176 22295 ft 421 kts 81°
2026-04-29 17:38 52.13610 1.90884 22701 ft 422 kts 81°
2026-04-29 17:39 52.14122 1.95614 22986 ft 426 kts 81°
2026-04-29 17:39 52.14635 2.00369 23364 ft 427 kts 82°
2026-04-29 17:39 52.15149 2.05139 23741 ft 429 kts 81°
2026-04-29 17:39 52.15666 2.09950 24022 ft 432 kts 82°
2026-04-29 17:40 52.16193 2.14767 24348 ft 433 kts 82°
2026-04-29 17:40 52.16729 2.19616 24601 ft 436 kts 82°
2026-04-29 17:40 52.17261 2.24413 24951 ft 437 kts 82°
2026-04-29 17:40 52.17801 2.29307 25199 ft 440 kts 82°
2026-04-29 17:41 52.18342 2.34218 25512 ft 441 kts 82°
2026-04-29 17:41 52.18721 2.39164 25852 ft 440 kts 89°
2026-04-29 17:41 52.18651 2.44121 26212 ft 437 kts 98°
2026-04-29 17:41 52.18083 2.48962 26635 ft 435 kts 104°
2026-04-29 17:42 52.17345 2.53393 26760 ft 436 kts 107°
2026-04-29 17:42 52.16756 2.56527 27098 ft 439 kts 106°
2026-04-29 17:42 52.15486 2.62787 27237 ft 438 kts 108°
2026-04-29 17:42 52.14513 2.67422 27931 ft 429 kts 108°
2026-04-29 17:43 52.13551 2.71996 28369 ft 427 kts 108°
2026-04-29 17:43 52.12597 2.76566 28686 ft 427 kts 108°
2026-04-29 17:43 52.11649 2.81149 29006 ft 427 kts 108°
2026-04-29 17:43 52.11025 2.84188 29240 ft 426 kts 108°
2026-04-29 17:44 52.10090 2.88754 29594 ft 426 kts 108°
2026-04-29 17:44 52.08852 2.94809 30025 ft 425 kts 107°
2026-04-29 17:44 52.08226 2.97870 30234 ft 424 kts 107°
2026-04-29 17:44 52.06990 3.03897 30622 ft 423 kts 107°
2026-04-29 17:45 52.06058 3.08429 30881 ft 423 kts 107°
2026-04-29 17:45 52.05125 3.12954 31139 ft 422 kts 107°
2026-04-29 17:45 52.04193 3.17468 31380 ft 421 kts 107°
2026-04-29 17:45 52.03259 3.21973 31627 ft 421 kts 108°
2026-04-29 17:46 52.02641 3.24951 31782 ft 420 kts 108°
2026-04-29 17:46 52.01707 3.29444 32010 ft 420 kts 108°
2026-04-29 17:46 52.00771 3.33933 32233 ft 419 kts 108°
2026-04-29 17:46 51.99837 3.38406 32461 ft 418 kts 108°
2026-04-29 17:47 51.98903 3.42873 32730 ft 417 kts 107°
2026-04-29 17:47 51.97969 3.47324 32937 ft 417 kts 108°
2026-04-29 17:47 51.97035 3.51773 33109 ft 417 kts 108°
2026-04-29 17:47 51.96099 3.56224 33309 ft 417 kts 108°
2026-04-29 17:48 51.95162 3.60664 33499 ft 416 kts 108°
2026-04-29 17:48 51.94225 3.65097 33706 ft 415 kts 108°
2026-04-29 17:48 51.93301 3.69458 33884 ft 415 kts 108°
2026-04-29 17:48 51.92365 3.73869 34075 ft 414 kts 108°
2026-04-29 17:49 51.91426 3.78279 34238 ft 414 kts 108°
2026-04-29 17:49 51.90489 3.82676 34391 ft 413 kts 108°
2026-04-29 17:49 51.89549 3.87072 34515 ft 413 kts 108°
2026-04-29 17:49 51.88605 3.91477 34629 ft 414 kts 107°
2026-04-29 17:50 51.87660 3.95876 34722 ft 415 kts 107°
2026-04-29 17:50 51.86712 4.00286 34828 ft 415 kts 107°
2026-04-29 17:50 51.85761 4.04693 34943 ft 415 kts 107°
2026-04-29 17:50 51.84809 4.09100 35045 ft 415 kts 107°
2026-04-29 17:51 51.83854 4.13507 35144 ft 415 kts 107°
2026-04-29 17:51 51.82897 4.17915 35256 ft 415 kts 107°
2026-04-29 17:51 51.81951 4.22262 35348 ft 416 kts 108°
2026-04-29 17:52 51.80027 4.31069 35530 ft 416 kts 108°
2026-04-29 17:52 51.78091 4.39887 35687 ft 417 kts 108°
2026-04-29 17:53 51.76143 4.48724 35808 ft 418 kts 108°
2026-04-29 17:53 51.74182 4.57584 35927 ft 420 kts 108°
2026-04-29 17:54 51.72210 4.66463 36032 ft 421 kts 108°
2026-04-29 17:54 51.70238 4.75300 36157 ft 422 kts 108°
2026-04-29 17:55 51.68241 4.84220 36267 ft 424 kts 108°
2026-04-29 17:55 51.66233 4.93155 36355 ft 425 kts 108°
2026-04-29 17:56 51.64211 5.02114 36466 ft 426 kts 108°
2026-04-29 17:56 51.62178 5.11075 36588 ft 427 kts 108°
2026-04-29 17:57 51.60134 5.20043 36657 ft 428 kts 108°
2026-04-29 17:57 51.58078 5.29025 36769 ft 428 kts 108°
2026-04-29 17:58 51.56010 5.38021 36844 ft 430 kts 107°
2026-04-29 17:58 51.53932 5.47022 36951 ft 430 kts 107°
2026-04-29 17:59 51.51856 5.55979 37030 ft 431 kts 107°
2026-04-29 17:59 51.49758 5.64995 37121 ft 432 kts 107°
2026-04-29 18:00 51.47646 5.74029 37189 ft 432 kts 107°
2026-04-29 18:00 51.45526 5.83060 37276 ft 434 kts 107°
2026-04-29 18:01 51.43390 5.92123 37311 ft 435 kts 107°
2026-04-29 18:01 51.41242 6.01194 37312 ft 435 kts 108°
2026-04-29 18:02 51.39102 6.10194 37310 ft 435 kts 108°
2026-04-29 18:02 51.36942 6.19244 37302 ft 435 kts 108°
2026-04-29 18:03 51.34772 6.28294 37307 ft 436 kts 107°
2026-04-29 18:03 51.32594 6.37347 37298 ft 436 kts 108°
2026-04-29 18:04 51.30407 6.46395 37300 ft 436 kts 108°
2026-04-29 18:04 51.28214 6.55426 37300 ft 436 kts 108°
2026-04-29 18:05 51.26023 6.64417 37299 ft 436 kts 108°
2026-04-29 18:05 51.23804 6.73486 37294 ft 437 kts 108°
2026-04-29 18:06 51.21599 6.82461 37293 ft 438 kts 108°
2026-04-29 18:06 51.19371 6.91492 37293 ft 438 kts 108°
2026-04-29 18:07 51.17133 7.00522 37295 ft 438 kts 108°
2026-04-29 18:07 51.14889 7.09542 37295 ft 438 kts 108°
2026-04-29 18:08 51.12639 7.18553 37298 ft 439 kts 108°
2026-04-29 18:08 51.10373 7.27596 37294 ft 440 kts 108°
2026-04-29 18:09 51.08108 7.36592 37300 ft 442 kts 108°
2026-04-29 18:09 51.05814 7.45659 37305 ft 442 kts 108°
2026-04-29 18:10 51.03515 7.54714 37313 ft 442 kts 108°
2026-04-29 18:10 51.01206 7.63775 37317 ft 443 kts 108°
2026-04-29 18:11 50.98886 7.72842 37315 ft 444 kts 108°
2026-04-29 18:11 50.96555 7.81917 37321 ft 444 kts 108°
2026-04-29 18:12 50.94232 7.90915 37320 ft 444 kts 109°
2026-04-29 18:12 50.91107 7.99414 37322 ft 452 kts 126°
2026-04-29 18:13 50.86771 8.06723 37319 ft 458 kts 131°
2026-04-29 18:13 50.82149 8.13740 37321 ft 462 kts 133°
2026-04-29 18:14 50.77475 8.20727 37321 ft 462 kts 133°
2026-04-29 18:14 50.72852 8.27682 37321 ft 462 kts 132°
2026-04-29 18:15 50.68215 8.34687 37324 ft 462 kts 132°
2026-04-29 18:15 50.63577 8.41689 37353 ft 462 kts 132°
2026-04-29 18:16 50.58871 8.48772 37320 ft 463 kts 132°
2026-04-29 18:16 50.54210 8.55766 37312 ft 464 kts 133°
2026-04-29 18:17 50.49532 8.62764 37320 ft 464 kts 133°
2026-04-29 18:17 50.44848 8.69746 37311 ft 465 kts 133°
2026-04-29 18:18 50.40155 8.76723 37318 ft 464 kts 133°
2026-04-29 18:18 50.35594 8.83767 37304 ft 461 kts 126°
2026-04-29 18:19 50.32214 8.92113 37317 ft 452 kts 113°
2026-04-29 18:19 50.29531 9.00978 37304 ft 450 kts 111°
2026-04-29 18:20 50.26976 9.09939 37304 ft 453 kts 111°
2026-04-29 18:20 50.24399 9.18923 37302 ft 453 kts 111°
2026-04-29 18:21 50.21788 9.27891 37304 ft 454 kts 111°
2026-04-29 18:21 50.19174 9.36793 37305 ft 455 kts 111°
2026-04-29 18:22 50.16531 9.45752 37300 ft 454 kts 111°
2026-04-29 18:22 50.13881 9.54704 37305 ft 454 kts 111°
2026-04-29 18:23 50.11229 9.63636 37311 ft 454 kts 111°
2026-04-29 18:23 50.08568 9.72570 37303 ft 455 kts 111°
2026-04-29 18:24 50.06529 9.81795 37315 ft 448 kts 99°
2026-04-29 18:24 50.05252 9.91281 37313 ft 447 kts 97°
2026-04-29 18:25 50.04119 10.00777 37316 ft 446 kts 97°
2026-04-29 18:25 50.03000 10.10206 37334 ft 447 kts 97°
2026-04-29 18:26 50.01846 10.19712 37319 ft 448 kts 97°
2026-04-29 18:26 50.00670 10.29229 37326 ft 448 kts 97°
2026-04-29 18:27 49.99484 10.38738 37324 ft 448 kts 97°
2026-04-29 18:27 49.98291 10.48239 37325 ft 448 kts 97°
2026-04-29 18:28 49.97090 10.57751 37329 ft 449 kts 97°
2026-04-29 18:28 49.95871 10.67196 37330 ft 449 kts 98°
2026-04-29 18:29 49.94589 10.76695 37329 ft 450 kts 98°
2026-04-29 18:29 49.93289 10.86192 37326 ft 449 kts 98°
2026-04-29 18:30 49.91987 10.95678 37324 ft 449 kts 98°
2026-04-29 18:30 49.90680 11.05168 37322 ft 451 kts 98°
2026-04-29 18:31 49.89369 11.14634 37318 ft 452 kts 98°
2026-04-29 18:31 49.88041 11.24150 37324 ft 452 kts 98°
2026-04-29 18:32 49.86705 11.33663 37316 ft 452 kts 98°
2026-04-29 18:32 49.84686 11.47945 37312 ft 454 kts 99°
2026-04-29 18:33 49.83319 11.57539 37303 ft 457 kts 99°
2026-04-29 18:33 49.81942 11.67132 37301 ft 456 kts 99°
2026-04-29 18:34 49.80789 11.75108 37298 ft 456 kts 99°
2026-04-29 18:34 49.79163 11.86304 37308 ft 457 kts 99°
2026-04-29 18:35 49.77768 11.95851 37294 ft 459 kts 99°
2026-04-29 18:35 49.76351 12.05479 37292 ft 459 kts 99°
2026-04-29 18:36 49.74924 12.15110 37300 ft 459 kts 99°
2026-04-29 18:36 49.73490 12.24733 37321 ft 459 kts 99°
2026-04-29 18:37 49.72040 12.34419 37325 ft 461 kts 99°
2026-04-29 18:37 49.70602 12.43960 37337 ft 463 kts 100°
2026-04-29 18:38 49.68937 12.53592 37339 ft 465 kts 104°
2026-04-29 18:38 49.66974 12.63121 37337 ft 466 kts 105°
2026-04-29 18:39 49.64973 12.72627 37338 ft 466 kts 104°
2026-04-29 18:39 49.62994 12.82157 37339 ft 467 kts 104°
2026-04-29 18:40 49.61035 12.91648 37340 ft 467 kts 104°
2026-04-29 18:40 49.59062 13.01194 37330 ft 467 kts 104°
2026-04-29 18:41 49.55090 13.20260 37347 ft 467 kts 104°
2026-04-29 18:42 49.53091 13.29779 37343 ft 467 kts 104°
2026-04-29 18:42 49.51085 13.39286 37344 ft 467 kts 105°
2026-04-29 18:43 49.49086 13.48718 37340 ft 467 kts 105°
2026-04-29 18:43 49.47064 13.58220 37347 ft 468 kts 105°
2026-04-29 18:44 49.45026 13.67755 37344 ft 470 kts 105°
2026-04-29 18:44 49.42975 13.77295 37350 ft 470 kts 105°
2026-04-29 18:45 49.41014 13.86874 37355 ft 469 kts 103°
2026-04-29 18:45 49.39278 13.96518 37376 ft 469 kts 102°
2026-04-29 18:46 49.37570 14.06195 37352 ft 471 kts 102°
2026-04-29 18:46 49.35836 14.15830 37351 ft 472 kts 103°
2026-04-29 18:47 49.34064 14.25519 37353 ft 472 kts 103°
2026-04-29 18:47 49.32279 14.35200 37354 ft 472 kts 103°
2026-04-29 18:48 49.30486 14.44876 37356 ft 473 kts 103°
2026-04-29 18:48 49.28680 14.54583 37348 ft 474 kts 103°
2026-04-29 18:49 49.26863 14.64287 37351 ft 474 kts 103°
2026-04-29 18:49 49.25039 14.73986 37346 ft 474 kts 103°
2026-04-29 18:50 49.23206 14.83679 37347 ft 476 kts 103°
2026-04-29 18:50 49.21368 14.93360 37345 ft 478 kts 103°
2026-04-29 18:51 49.19504 15.03122 37347 ft 478 kts 103°
2026-04-29 18:51 49.17630 15.12879 37343 ft 478 kts 103°
2026-04-29 18:52 49.15748 15.22629 37352 ft 478 kts 104°
2026-04-29 18:52 49.13855 15.32393 37347 ft 480 kts 104°
2026-04-29 18:53 49.11950 15.42168 37336 ft 481 kts 104°
2026-04-29 18:53 49.10033 15.51945 37338 ft 481 kts 104°
2026-04-29 18:54 49.08123 15.61645 37352 ft 481 kts 104°
2026-04-29 18:54 49.06188 15.71425 37319 ft 482 kts 104°
2026-04-29 18:55 49.04239 15.81222 37323 ft 483 kts 104°
2026-04-29 18:55 49.02279 15.91018 37321 ft 483 kts 104°
2026-04-29 18:56 49.00310 16.00812 37338 ft 483 kts 104°
2026-04-29 18:56 48.98333 16.10607 37337 ft 485 kts 104°
2026-04-29 18:57 48.96676 16.18779 37333 ft 487 kts 104°
2026-04-29 18:57 48.94669 16.28626 37335 ft 487 kts 104°
2026-04-29 18:58 48.92327 16.40049 37351 ft 487 kts 104°
2026-04-29 18:58 48.90632 16.48279 37359 ft 487 kts 105°
2026-04-29 18:59 48.88611 16.58054 37357 ft 488 kts 105°
2026-04-29 18:59 48.86567 16.67884 37353 ft 488 kts 105°
2026-04-29 19:00 48.84514 16.77709 37359 ft 488 kts 105°
2026-04-29 19:00 48.82454 16.87529 37357 ft 489 kts 105°
2026-04-29 19:01 48.80380 16.97365 37346 ft 490 kts 105°
2026-04-29 19:01 48.78089 17.07106 37340 ft 492 kts 115°
2026-04-29 19:02 48.74582 17.16017 37332 ft 494 kts 122°
2026-04-29 19:02 48.70745 17.24676 37331 ft 496 kts 123°
2026-04-29 19:03 48.66869 17.33220 37326 ft 496 kts 123°
2026-04-29 19:03 48.62978 17.41820 37314 ft 495 kts 123°
2026-04-29 19:04 48.59096 17.50426 37320 ft 495 kts 123°
2026-04-29 19:04 48.55221 17.59011 37325 ft 495 kts 124°
2026-04-29 19:05 48.51326 17.67616 37314 ft 497 kts 124°
2026-04-29 19:05 48.47414 17.76224 37304 ft 498 kts 124°
2026-04-29 19:06 48.43491 17.84826 37302 ft 498 kts 124°
2026-04-29 19:07 48.37599 17.97697 37304 ft 499 kts 124°
2026-04-29 19:07 48.33676 18.06236 37286 ft 501 kts 124°
2026-04-29 19:08 48.29709 18.14838 37255 ft 501 kts 124°
2026-04-29 19:08 48.25736 18.23429 37275 ft 501 kts 125°
2026-04-29 19:09 48.21899 18.31699 37272 ft 501 kts 125°
2026-04-29 19:09 48.17916 18.40256 37275 ft 500 kts 125°
2026-04-29 19:10 48.13965 18.48720 37265 ft 499 kts 125°
2026-04-29 19:10 48.09980 18.57233 37263 ft 499 kts 125°
2026-04-29 19:11 48.05989 18.65729 37258 ft 499 kts 125°
2026-04-29 19:11 48.02002 18.74189 37260 ft 497 kts 125°
2026-04-29 19:12 47.98039 18.82573 37251 ft 497 kts 125°
2026-04-29 19:12 47.94050 18.90988 37240 ft 497 kts 126°
2026-04-29 19:13 47.90050 18.99400 37254 ft 497 kts 126°
2026-04-29 19:13 47.86049 19.07782 37251 ft 495 kts 126°
2026-04-29 19:14 47.82054 19.16130 37250 ft 495 kts 126°
2026-04-29 19:14 47.78055 19.24461 37245 ft 495 kts 126°
2026-04-29 19:15 47.74074 19.32730 37253 ft 495 kts 127°
2026-04-29 19:15 47.70053 19.41059 37251 ft 497 kts 127°
2026-04-29 19:16 47.66020 19.49384 37253 ft 497 kts 127°
2026-04-29 19:16 47.61982 19.57694 37249 ft 497 kts 127°
2026-04-29 19:17 47.57937 19.65996 37253 ft 498 kts 128°
2026-04-29 19:17 47.53891 19.74273 37246 ft 501 kts 128°
2026-04-29 19:18 47.49801 19.82614 37242 ft 501 kts 128°
2026-04-29 19:18 47.45704 19.90946 37248 ft 500 kts 128°
2026-04-29 19:18 47.43661 19.95090 37091 ft 498 kts 128°